Back to catalog

FALCON 9 R/B

AliveHEO
NORAD 48839·ROCKET BODY·🇺🇸 United States

Launched Jun 6, 2021 from Cape Canaveral Space Force Station

Loading…

Next Passes (next 24 hours)

TLE

FreshSource: Space-Track

Epoch: Sep 14, 2026, 09:18 UTC

1 48839U 21049B   26257.38796660  .00026378  00000-0  86999-3 0  9995
2 48839  27.0174  99.3957 5080820  21.0925 354.0468  5.58869409 91957

Track FALCON 9 R/B in real time with AllMySat

Download on the App Store